Location: Moscow Pond
(43.6842°N, 73.2366°W)
Time: 20:20:13
(UTC+00:00)

CZ-2C R/B - Pass Details

Date: 08 November 2025
Orbit: 664 x 773 km, 98.4° (Epoch: 10 December)

Event Time Altitude Azimuth Distance (km) Brightness Sun altitude
Rises 09:12:26 0° 11° (N) 3,185 5.9 -26.6°
Reaches altitude 10° 09:14:42 10° 10° (N) 2,272 5.1 -26.2°
Enters shadow 09:19:13 67° 330° (NNW) 821 2.4 -25.4°
